Location: Garshuizen
(53.3675°N, 6.7248°E)
Time: 19:57:50
(UTC+00:00)

Cosmos 1486 Rocket - Pass Details

Date: 15 May 2026
Orbit: 754 x 779 km, 74.1° (Epoch: 7 June)

Event Time Altitude Azimuth Distance (km) Brightness Sun altitude
Rises 20:10:51 0° 334° (NNW) 3,245 8.8 -5.9°
Reaches altitude 10° 20:13:16 10° 339° (NNW) 2,319 7.7 -6.2°
Maximum altitude 20:18:28 61° 59° (ENE) 880 4.3 -6.8°
Drops below altitude 10° 20:23:41 10° 140° (SE) 2,320 5.8 -7.3°
Enters shadow 20:23:56 - 141° (SE) 2,411 5.9 -7.3°
